Location: Brivio
(45.7333°N, 9.4500°E)
Time: 22:06:19
(UTC+00:00)

Cosmos 2278 Rocket - Pass Details

Date: 18 October 2019
Orbit: 840 x 847 km, 71.0° (Epoch: 17 November)

Event Time Altitude Azimuth Distance (km) Brightness Sun altitude
Rises 17:37:18 0° 188° (S) 3,388 5.5 -12.1°
Reaches altitude 10° 17:39:48 10° 183° (S) 2,459 4.7 -12.6°
Maximum altitude 17:45:14 51° 109° (ESE) 1,061 2.4 -13.5°
Drops below altitude 10° 17:50:42 10° 35° (NE) 2,478 4.3 -14.5°
Sets 17:53:13 0° 31° (NNE) 3,418 5.1 -14.9°
